CCM26H EBCI-LFKB

Flight info

Callsign CCM26H
Flight time N/A
Altitude 37000
Route RITAX UT27 ROUSY DCT GTQ DCT DEVDI DCT ODINA DCT OLETI M858 LIGUR
Aircraft A320/M-SDE3FGHIRWY/LB1

Departure

Time 2026-05-07 15:12
Airport Brussels South Charleroi Airport (EBCI)

Arrival

Time N/A
Airport Bastia-Poretta International airport (LFKB)
Time Latitude Longitude Altitude Speed Heading
2026-05-07 14:45 50.46787 4.46822 612 ft 0 kts 337°
2026-05-07 15:04 50.46786 4.46823 612 ft 2 kts 337°
2026-05-07 15:04 50.46763 4.46840 617 ft 4 kts 322°
2026-05-07 15:04 50.46747 4.46869 625 ft 4 kts 278°
2026-05-07 15:04 50.46748 4.46889 625 ft 0 kts 245°
2026-05-07 15:06 50.46736 4.46849 624 ft 7 kts 245°
2026-05-07 15:06 50.46718 4.46793 617 ft 6 kts 236°
2026-05-07 15:07 50.46669 4.46782 615 ft 8 kts 159°
2026-05-07 15:07 50.46625 4.46801 613 ft 6 kts 180°
2026-05-07 15:07 50.46585 4.46729 620 ft 12 kts 245°
2026-05-07 15:07 50.46545 4.46590 618 ft 14 kts 245°
2026-05-07 15:08 50.46506 4.46459 625 ft 12 kts 245°
2026-05-07 15:08 50.46472 4.46340 620 ft 14 kts 245°
2026-05-07 15:08 50.46428 4.46192 620 ft 14 kts 245°
2026-05-07 15:08 50.46386 4.46043 623 ft 19 kts 245°
2026-05-07 15:09 50.46323 4.45826 626 ft 25 kts 245°
2026-05-07 15:09 50.46250 4.45575 631 ft 23 kts 246°
2026-05-07 15:09 50.46183 4.45341 629 ft 24 kts 245°
2026-05-07 15:09 50.46113 4.45099 630 ft 25 kts 245°
2026-05-07 15:10 50.46040 4.44849 630 ft 25 kts 245°
2026-05-07 15:10 50.45966 4.44595 634 ft 25 kts 245°
2026-05-07 15:10 50.45893 4.44394 630 ft 20 kts 232°
2026-05-07 15:10 50.45810 4.44227 631 ft 18 kts 232°
2026-05-07 15:11 50.45736 4.44078 635 ft 16 kts 232°
2026-05-07 15:11 50.45674 4.43984 633 ft 10 kts 195°
2026-05-07 15:11 50.45629 4.44031 633 ft 8 kts 103°
2026-05-07 15:11 50.45651 4.44129 637 ft 14 kts 66°
2026-05-07 15:12 50.45789 4.44605 633 ft 84 kts 65°
2026-05-07 15:12 50.46121 4.45748 630 ft 142 kts 65°
2026-05-07 15:12 50.46569 4.47314 1001 ft 159 kts 66°
2026-05-07 15:12 50.47172 4.48773 1783 ft 160 kts 51°
2026-05-07 15:13 50.47897 4.50104 2508 ft 164 kts 50°
2026-05-07 15:13 50.48691 4.51541 2932 ft 185 kts 50°
2026-05-07 15:13 50.49570 4.53138 3272 ft 207 kts 50°
2026-05-07 15:13 50.50557 4.54940 3621 ft 230 kts 50°
2026-05-07 15:14 50.51651 4.56948 4098 ft 253 kts 50°
2026-05-07 15:14 50.52816 4.59102 4918 ft 262 kts 50°
2026-05-07 15:14 50.53971 4.61357 5804 ft 268 kts 52°
2026-05-07 15:14 50.55127 4.63690 6691 ft 273 kts 52°
2026-05-07 15:15 50.56296 4.66077 7542 ft 278 kts 52°
2026-05-07 15:15 50.57484 4.68508 8393 ft 283 kts 52°
2026-05-07 15:15 50.58695 4.70986 9266 ft 288 kts 52°
2026-05-07 15:15 50.59926 4.73504 10098 ft 293 kts 52°
2026-05-07 15:16 50.61192 4.76086 10521 ft 313 kts 52°
2026-05-07 15:16 50.62573 4.78900 10795 ft 336 kts 52°
2026-05-07 15:16 50.63921 4.81995 11284 ft 349 kts 64°
2026-05-07 15:16 50.64664 4.85650 11977 ft 354 kts 82°
2026-05-07 15:17 50.64630 4.89525 12707 ft 357 kts 101°
2026-05-07 15:17 50.63796 4.93199 13424 ft 359 kts 121°
2026-05-07 15:17 50.62252 4.96297 14117 ft 362 kts 136°
2026-05-07 15:17 50.60463 4.99115 14776 ft 365 kts 136°
2026-05-07 15:18 50.58650 5.01948 15430 ft 369 kts 136°
2026-05-07 15:18 50.56816 5.04810 16080 ft 373 kts 136°
2026-05-07 15:18 50.54994 5.07654 16724 ft 377 kts 136°
2026-05-07 15:18 50.53123 5.10577 17336 ft 380 kts 136°
2026-05-07 15:19 50.51241 5.13525 17962 ft 384 kts 136°
2026-05-07 15:19 50.49342 5.16504 18554 ft 388 kts 136°
2026-05-07 15:19 50.47428 5.19502 19097 ft 391 kts 136°
2026-05-07 15:19 50.45497 5.22523 19632 ft 394 kts 136°
2026-05-07 15:20 50.43549 5.25569 20153 ft 397 kts 136°
2026-05-07 15:20 50.41582 5.28635 20688 ft 400 kts 136°
2026-05-07 15:20 50.39605 5.31707 21212 ft 403 kts 136°
2026-05-07 15:20 50.37634 5.34766 21722 ft 405 kts 136°
2026-05-07 15:21 50.35621 5.37888 22226 ft 408 kts 136°
2026-05-07 15:21 50.33593 5.41030 22709 ft 411 kts 136°
2026-05-07 15:21 50.31550 5.44192 23222 ft 414 kts 136°
2026-05-07 15:21 50.29494 5.47369 23683 ft 417 kts 136°
2026-05-07 15:22 50.27424 5.50567 24075 ft 420 kts 136°
2026-05-07 15:22 50.25335 5.53790 24473 ft 423 kts 137°
2026-05-07 15:22 50.23236 5.57025 24884 ft 425 kts 137°
2026-05-07 15:22 50.21153 5.60227 25269 ft 427 kts 137°
2026-05-07 15:23 50.19026 5.63485 25649 ft 430 kts 137°
2026-05-07 15:23 50.16885 5.66759 26033 ft 432 kts 137°
2026-05-07 15:23 50.14732 5.70051 26403 ft 435 kts 137°
2026-05-07 15:23 50.12567 5.73362 26778 ft 437 kts 137°
2026-05-07 15:24 50.10380 5.76670 27139 ft 439 kts 140°
2026-05-07 15:24 50.07966 5.79570 27490 ft 439 kts 149°
2026-05-07 15:24 50.05280 5.81847 27851 ft 440 kts 158°
2026-05-07 15:24 50.02408 5.83482 28188 ft 441 kts 163°
2026-05-07 15:25 49.99524 5.84954 28521 ft 443 kts 163°
2026-05-07 15:25 49.96588 5.86464 28846 ft 445 kts 163°
2026-05-07 15:25 49.93641 5.87989 29165 ft 448 kts 163°
2026-05-07 15:25 49.90680 5.89521 29476 ft 450 kts 163°
2026-05-07 15:26 49.87700 5.91061 29783 ft 452 kts 163°
2026-05-07 15:26 49.84704 5.92609 30080 ft 455 kts 163°
2026-05-07 15:26 49.81696 5.94156 30325 ft 457 kts 163°
2026-05-07 15:26 49.78671 5.95706 30582 ft 459 kts 163°
2026-05-07 15:27 49.75640 5.97254 30933 ft 458 kts 163°
2026-05-07 15:27 49.72653 5.98780 31291 ft 458 kts 163°
2026-05-07 15:27 49.69635 6.00323 31644 ft 457 kts 163°
2026-05-07 15:27 49.66617 6.01865 31994 ft 457 kts 163°
2026-05-07 15:28 49.63602 6.03405 32337 ft 456 kts 163°
2026-05-07 15:28 49.60583 6.04944 32691 ft 456 kts 163°
2026-05-07 15:28 49.57574 6.06478 33034 ft 456 kts 164°
2026-05-07 15:28 49.54566 6.08004 33409 ft 455 kts 164°
2026-05-07 15:29 49.51561 6.09522 33755 ft 455 kts 164°
2026-05-07 15:29 49.48617 6.11314 34085 ft 457 kts 156°
2026-05-07 15:29 49.45866 6.13782 34363 ft 459 kts 147°
2026-05-07 15:29 49.43347 6.16807 34662 ft 460 kts 143°
2026-05-07 15:30 49.40900 6.19858 34945 ft 460 kts 143°
2026-05-07 15:30 49.38411 6.22947 35231 ft 459 kts 143°
2026-05-07 15:30 49.35925 6.26021 35494 ft 460 kts 143°
2026-05-07 15:30 49.33431 6.29101 35701 ft 461 kts 143°
2026-05-07 15:31 49.30935 6.32180 35941 ft 461 kts 143°
2026-05-07 15:31 49.28439 6.35254 36190 ft 460 kts 143°
2026-05-07 15:31 49.25943 6.38324 36446 ft 460 kts 143°
2026-05-07 15:31 49.23446 6.41389 36698 ft 460 kts 143°
2026-05-07 15:32 49.20983 6.44405 36939 ft 459 kts 143°
2026-05-07 15:32 49.18488 6.47453 37035 ft 460 kts 143°
2026-05-07 15:32 49.13494 6.53554 37052 ft 459 kts 143°
2026-05-07 15:33 49.08500 6.59652 37052 ft 460 kts 143°
2026-05-07 15:33 49.03501 6.65735 37044 ft 461 kts 143°
2026-05-07 15:34 48.98382 6.71571 37058 ft 458 kts 152°
2026-05-07 15:34 48.92688 6.75702 37045 ft 456 kts 158°
2026-05-07 15:35 48.86898 6.79640 37046 ft 456 kts 158°
2026-05-07 15:35 48.81104 6.83578 37049 ft 456 kts 158°
2026-05-07 15:36 48.75306 6.87513 37051 ft 456 kts 158°
2026-05-07 15:36 48.69543 6.91411 37053 ft 456 kts 158°
2026-05-07 15:37 48.63748 6.95324 37058 ft 456 kts 158°
2026-05-07 15:37 48.57950 6.99242 37061 ft 456 kts 159°
2026-05-07 15:38 48.52145 7.03141 37060 ft 457 kts 159°
2026-05-07 15:38 48.46330 7.07032 37060 ft 457 kts 159°
2026-05-07 15:39 48.40567 7.10884 37045 ft 457 kts 159°
2026-05-07 15:39 48.34757 7.14752 37049 ft 457 kts 159°
2026-05-07 15:40 48.28943 7.18618 37048 ft 457 kts 159°
2026-05-07 15:40 48.23133 7.22481 37052 ft 457 kts 159°
2026-05-07 15:41 48.17319 7.26342 37048 ft 457 kts 159°
2026-05-07 15:41 48.11535 7.30160 37052 ft 457 kts 159°
2026-05-07 15:42 48.05714 7.33984 37058 ft 457 kts 159°
2026-05-07 15:42 47.99892 7.37813 37055 ft 457 kts 159°
2026-05-07 15:43 47.94071 7.41626 37041 ft 457 kts 160°
2026-05-07 15:43 47.88242 7.45440 37037 ft 457 kts 160°
2026-05-07 15:44 47.82441 7.49222 37040 ft 458 kts 160°
2026-05-07 15:44 47.76614 7.53010 37033 ft 457 kts 160°
2026-05-07 15:45 47.70785 7.56839 37025 ft 458 kts 159°
2026-05-07 15:45 47.65023 7.60914 37023 ft 459 kts 158°
2026-05-07 15:46 47.56439 7.67090 37028 ft 459 kts 158°
2026-05-07 15:47 47.50666 7.71148 37010 ft 459 kts 159°
2026-05-07 15:47 47.44889 7.75163 37015 ft 459 kts 159°
2026-05-07 15:48 47.39110 7.79182 37013 ft 459 kts 159°
2026-05-07 15:48 47.33367 7.83181 37011 ft 459 kts 159°
2026-05-07 15:49 47.27583 7.87194 37015 ft 460 kts 159°
2026-05-07 15:49 47.21795 7.91200 37019 ft 459 kts 159°
2026-05-07 15:50 47.16013 7.95197 37023 ft 459 kts 159°
2026-05-07 15:50 47.10271 7.99161 37015 ft 459 kts 159°
2026-05-07 15:51 47.04487 8.03145 37022 ft 459 kts 159°
2026-05-07 15:51 46.98707 8.07103 37031 ft 459 kts 159°
2026-05-07 15:52 46.92924 8.11051 37033 ft 459 kts 159°
2026-05-07 15:52 46.87142 8.14994 37018 ft 459 kts 160°
2026-05-07 15:53 46.81360 8.18934 36993 ft 459 kts 160°
2026-05-07 15:53 46.75584 8.22858 36994 ft 458 kts 160°
2026-05-07 15:54 46.69788 8.26783 37001 ft 459 kts 160°
2026-05-07 15:54 46.64033 8.30683 36999 ft 460 kts 160°
2026-05-07 15:55 46.58194 8.34628 37006 ft 459 kts 160°
2026-05-07 15:55 46.52394 8.38526 37008 ft 459 kts 160°
2026-05-07 15:56 46.46636 8.42385 37000 ft 459 kts 160°
2026-05-07 15:56 46.40843 8.46271 36985 ft 459 kts 160°
2026-05-07 15:57 46.35047 8.50152 36980 ft 459 kts 160°
2026-05-07 15:57 46.29243 8.54020 36975 ft 459 kts 160°
2026-05-07 15:58 46.23475 8.57859 36952 ft 459 kts 160°
2026-05-07 15:58 46.17668 8.61706 36959 ft 459 kts 160°
2026-05-07 15:59 46.11843 8.65442 36952 ft 454 kts 166°
2026-05-07 15:59 46.05756 8.67234 36959 ft 444 kts 179°
2026-05-07 16:00 46.00643 8.68008 36960 ft 445 kts 179°
2026-05-07 16:00 45.93488 8.69114 36974 ft 445 kts 179°
2026-05-07 16:01 45.87344 8.70076 36970 ft 444 kts 179°
2026-05-07 16:01 45.82232 8.70872 36952 ft 444 kts 179°
2026-05-07 16:02 45.76051 8.71831 36971 ft 443 kts 179°
2026-05-07 16:02 45.69924 8.72774 36984 ft 443 kts 179°
2026-05-07 16:03 45.63807 8.73712 36986 ft 442 kts 179°
2026-05-07 16:03 45.57732 8.74637 36983 ft 442 kts 179°
2026-05-07 16:04 45.51619 8.75573 36983 ft 441 kts 179°
2026-05-07 16:04 45.45516 8.76504 36985 ft 441 kts 179°
2026-05-07 16:05 45.39421 8.77428 36998 ft 440 kts 180°
2026-05-07 16:05 45.33372 8.78343 37011 ft 440 kts 179°
2026-05-07 16:06 45.27249 8.79268 37005 ft 439 kts 180°
2026-05-07 16:06 45.21173 8.80197 36972 ft 439 kts 180°
2026-05-07 16:07 45.15109 8.81112 36985 ft 438 kts 180°
2026-05-07 16:07 45.09057 8.82014 36991 ft 437 kts 180°
2026-05-07 16:08 45.03047 8.82919 36981 ft 437 kts 180°
2026-05-07 16:08 44.97004 8.83832 36965 ft 436 kts 180°
2026-05-07 16:09 44.90971 8.84733 36978 ft 436 kts 180°
2026-05-07 16:09 44.84944 8.85637 36985 ft 435 kts 180°
2026-05-07 16:10 44.78924 8.86539 36982 ft 435 kts 180°
2026-05-07 16:10 44.72954 8.87423 36997 ft 434 kts 180°
2026-05-07 16:11 44.66947 8.88316 37000 ft 434 kts 180°
2026-05-07 16:11 44.60943 8.89199 36993 ft 434 kts 180°
2026-05-07 16:12 44.54953 8.90082 37001 ft 433 kts 180°
2026-05-07 16:12 44.48999 8.90959 37009 ft 433 kts 180°
2026-05-07 16:13 44.43016 8.91836 37010 ft 433 kts 180°
2026-05-07 16:13 44.37028 8.92716 37008 ft 432 kts 180°
2026-05-07 16:14 44.31042 8.93590 37007 ft 432 kts 180°
2026-05-07 16:14 44.25103 8.94458 36989 ft 432 kts 180°
2026-05-07 16:15 44.19122 8.95337 37002 ft 432 kts 180°
2026-05-07 16:15 44.13152 8.96207 37007 ft 431 kts 180°
2026-05-07 16:16 44.07181 8.97072 37003 ft 431 kts 180°
2026-05-07 16:16 44.01258 8.97934 36997 ft 431 kts 181°
2026-05-07 16:17 43.95304 8.98798 37003 ft 430 kts 181°
2026-05-07 16:17 43.89352 8.99658 37004 ft 430 kts 181°
2026-05-07 16:18 43.83406 9.00514 36995 ft 429 kts 181°
2026-05-07 16:18 43.77536 9.00468 36998 ft 418 kts 191°
2026-05-07 16:19 43.71773 8.99776 36996 ft 418 kts 191°
2026-05-07 16:19 43.65975 8.99095 36986 ft 418 kts 192°
2026-05-07 16:20 43.60184 8.98424 36998 ft 418 kts 192°